Location: Dampvalley
(47.9094°N, 6.1967°E)
Time: 21:40:14
(UTC+00:00)

ERS-2 - Pass Details

Date: 05 March 2021
Orbit: 492 x 496 km, 98.6° (Epoch: 21 April)

Event Time Altitude Azimuth Distance (km) Brightness Sun altitude
Rises 04:40:56 0° 142° (SE) 2,564 6.2 -15.4°
Reaches altitude 10° 04:43:07 10° 132° (SE) 1,688 5.4 -15.1°
Maximum altitude 04:46:24 33° 68° (ENE) 858 4.0 -14.5°
Drops below altitude 10° 04:49:42 10° 3° (N) 1,704 4.9 -14.0°
Sets 04:51:54 0° 354° (N) 2,593 5.8 -13.6°
